Bemidji, MN

6:46 AM CDT on July 22, 2017 (GMT -0500)
Bemidji-Beltrami County

Weather History for KBJI - October, 2012

Change the Weather History Date:

Thursday, October 25, 2012

  Actual Average Record
Temperature  
Mean Temperature 32 °F -  
Max Temperature 35 °F 48 °F 75 °F (1989)
Min Temperature 30 °F 31 °F 17 °F (1962)
Degree Days  
Heating Degree Days 32    
Moisture  
Dew Point 28 °F    
Average Humidity 81    
Maximum Humidity 97    
Minimum Humidity 66    
Precipitation  
Precipitation 0.00 in - - ()
Sea Level Pressure  
Sea Level Pressure 29.91 in    
Wind  
Wind Speed 12 mph (WNW)    
Max Wind Speed 22 mph    
Max Gust Speed 26 mph    
Visibility 9 miles    
Events Rain , Snow    
Averages and records for this station are not official NWS values.
T = Trace of Precipitation, MM = Missing Value Source: NWS Daily Summary

Daily Weather History Graph

Daily Weather History Graph

Search for Another Location

Airport or City:

Trip Planner

Search our weather history database for the weather conditions in past years. The results will help you decide how hot, cold, wet, or windy it might be!

Date:

Astronomy

Oct. 25, 2012 Rise Set
Actual Time 7:53 AM CDT 6:12 PM CDT
Civil Twilight 7:22 AM CDT 6:44 PM CDT
Nautical Twilight 6:46 AM CDT 7:20 PM CDT
Astronomical Twilight 6:10 AM CDT 7:55 PM CDT
Moon 4:12 PM CDT (10/25) 3:36 AM CDT (10/25)
Length of Visible Light 11h 22m
Length of Day
10h 19m
Waxing Gibbous, 84% of the Moon is Illuminated
Oct 25
Waxing Gibbous
Oct 29
Full
Nov 6
Last Quarter
Nov 13
New
Nov 20
First Quarter

Hourly Weather History & Observations

Time (CDT) Temp. Windchill Dew Point Humidity Pressure Visibility Wind Dir Wind Speed Gust Speed Precip Events Conditions
12:15 AM 34.7 °F 30.6 °F 33.4 °F 95% 29.92 in 7.0 mi NW 4.6 mph - N/A   Overcast
12:35 AM 34.7 °F 29.6 °F 33.8 °F 97% 29.92 in 7.0 mi NW 5.8 mph - N/A   Overcast
12:55 AM 34.7 °F 27.5 °F 33.8 °F 97% 29.92 in 10.0 mi NW 9.2 mph - N/A Rain Light Rain
1:15 AM 34.7 °F 26.9 °F 33.6 °F 96% 29.91 in 10.0 mi NW 10.4 mph - N/A Rain Light Rain
1:35 AM 34.7 °F 25.9 °F 33.3 °F 94% 29.92 in 10.0 mi NW 12.7 mph 17.3 mph N/A   Light Drizzle
1:55 AM 34.5 °F 26.2 °F 32.4 °F 92% 29.92 in 7.0 mi NW 11.5 mph - N/A   Overcast
2:15 AM 34.2 °F 26.2 °F 32.0 °F 92% 29.90 in 7.0 mi NW 10.4 mph - N/A   Overcast
2:35 AM 33.8 °F 25.3 °F 32.0 °F 93% 29.88 in 10.0 mi NW 11.5 mph - N/A   Overcast
2:55 AM 33.8 °F 25.8 °F 32.0 °F 93% 29.87 in 7.0 mi NNW 10.4 mph - N/A   Overcast
3:15 AM 33.4 °F 28.1 °F 31.6 °F 93% 29.89 in 10.0 mi NNW 5.8 mph - N/A   Overcast
3:35 AM 33.4 °F 28.1 °F 31.3 °F 92% 29.89 in 10.0 mi NW 5.8 mph - N/A   Overcast
3:55 AM 33.3 °F 24.6 °F 31.3 °F 92% 29.90 in 10.0 mi NW 11.5 mph - N/A   Overcast
4:15 AM 32.9 °F 24.1 °F 30.4 °F 90% 29.90 in 10.0 mi WNW 11.5 mph - N/A   Overcast
4:55 AM 32.0 °F 23.0 °F 28.6 °F 87% 29.91 in 10.0 mi WNW 11.5 mph - N/A   Overcast
5:15 AM 31.8 °F 22.3 °F 28.0 °F 86% 29.90 in 10.0 mi NW 12.7 mph 17.3 mph N/A   Overcast
5:35 AM 31.5 °F 21.8 °F 27.5 °F 85% 29.88 in 10.0 mi NW 12.7 mph - N/A   Overcast
5:55 AM 31.1 °F 20.9 °F 27.1 °F 85% 29.87 in 10.0 mi NW 13.8 mph - N/A   Overcast
6:15 AM 31.1 °F 20.9 °F 27.3 °F 86% 29.87 in 10.0 mi NW 13.8 mph - N/A   Overcast
6:35 AM 31.1 °F 21.4 °F 27.5 °F 87% 29.87 in 10.0 mi NW 12.7 mph - N/A   Overcast
7:15 AM 31.1 °F 21.9 °F 27.3 °F 86% 29.88 in 10.0 mi NW 11.5 mph 17.3 mph N/A   Overcast
7:35 AM 31.1 °F 22.4 °F 27.0 °F 85% 29.88 in 7.0 mi NW 10.4 mph - N/A   Overcast
8:15 AM 30.9 °F 23.5 °F 26.6 °F 84% 29.87 in 10.0 mi NW 8.1 mph - N/A   Overcast
8:35 AM 30.9 °F 24.3 °F 26.6 °F 84% 29.87 in 7.0 mi NW 6.9 mph - N/A   Overcast
8:55 AM 31.1 °F 23.1 °F 27.1 °F 85% 29.89 in 10.0 mi NW 9.2 mph - N/A   Overcast
9:15 AM 31.5 °F 22.9 °F 27.5 °F 85% 29.89 in 7.0 mi NW 10.4 mph - N/A   Overcast
9:35 AM 31.5 °F 22.9 °F 27.5 °F 85% 29.87 in 7.0 mi NW 10.4 mph - N/A   Overcast
9:55 AM 31.5 °F 22.9 °F 27.9 °F 87% 29.88 in 7.0 mi NW 10.4 mph - N/A   Overcast
10:15 AM 31.6 °F 21.6 °F 28.0 °F 87% 29.88 in 10.0 mi WNW 13.8 mph - N/A   Overcast
10:35 AM 31.8 °F 22.8 °F 28.2 °F 87% 29.88 in 10.0 mi WNW 11.5 mph - N/A   Overcast
10:55 AM 32.0 °F 22.5 °F 28.2 °F 86% 29.89 in 7.0 mi NW 12.7 mph - N/A   Overcast
11:15 AM 32.2 °F 22.7 °F 28.4 °F 86% 29.89 in 7.0 mi WNW 12.7 mph - N/A   Overcast
11:35 AM 32.7 °F 22.5 °F 28.9 °F 86% 29.89 in 10.0 mi WNW 15.0 mph - N/A   Overcast
12:15 PM 33.3 °F 22.5 °F 28.2 °F 82% 29.88 in 10.0 mi NW 17.3 mph 23.0 mph N/A   Overcast
12:35 PM 33.6 °F 22.6 °F 28.2 °F 81% 29.87 in 10.0 mi NW 18.4 mph 25.3 mph N/A   Overcast
12:55 PM 33.8 °F 21.9 °F 27.9 °F 79% 29.87 in 7.0 mi WNW 21.9 mph - N/A   Overcast
1:15 PM 34.2 °F 24.0 °F 27.9 °F 78% 29.87 in 10.0 mi NW 16.1 mph 20.7 mph N/A   Overcast
1:35 PM 34.7 °F 25.5 °F 27.7 °F 76% 29.87 in 10.0 mi WNW 13.8 mph - N/A   Overcast
1:55 PM 34.7 °F 25.5 °F 27.7 °F 76% 29.87 in 10.0 mi West 13.8 mph 18.4 mph N/A   Overcast
2:15 PM 35.2 °F 25.8 °F 27.7 °F 74% 29.87 in 10.0 mi West 15.0 mph - N/A   Overcast
2:35 PM 35.8 °F 25.4 °F 27.0 °F 70% 29.88 in 10.0 mi West 18.4 mph 25.3 mph N/A   Overcast
2:55 PM 35.2 °F 25.0 °F 26.2 °F 70% 29.88 in 7.0 mi WNW 17.3 mph 20.7 mph N/A   Overcast
3:15 PM 35.1 °F 25.2 °F 26.1 °F 70% 29.88 in 10.0 mi WNW 16.1 mph - N/A   Overcast
3:35 PM 35.2 °F 24.4 °F 25.9 °F 69% 29.88 in 7.0 mi WNW 19.6 mph - N/A   Overcast
3:55 PM 35.6 °F 26.6 °F 25.2 °F 66% 29.89 in 7.0 mi WNW 13.8 mph 26.5 mph N/A   Overcast
4:15 PM 35.4 °F 25.3 °F 25.3 °F 67% 29.89 in 7.0 mi West 17.3 mph 24.2 mph N/A   Overcast
4:35 PM 35.1 °F 26.4 °F 25.7 °F 69% 29.89 in 10.0 mi West 12.7 mph 19.6 mph N/A   Overcast
4:55 PM 34.9 °F 24.9 °F 26.1 °F 70% 29.90 in 10.0 mi West 16.1 mph 21.9 mph N/A   Overcast
5:15 PM 34.9 °F 24.9 °F 25.9 °F 70% 29.90 in 10.0 mi West 16.1 mph 20.7 mph N/A   Overcast
5:35 PM 34.9 °F 26.2 °F 25.5 °F 69% 29.91 in 10.0 mi West 12.7 mph 20.7 mph N/A   Overcast
5:55 PM 34.9 °F 25.3 °F 25.7 °F 69% 29.92 in 10.0 mi WNW 15.0 mph - N/A   Overcast
6:15 PM 34.7 °F 24.3 °F 25.5 °F 69% 29.93 in 10.0 mi WNW 17.3 mph 20.7 mph N/A   Overcast
6:35 PM 34.7 °F 24.7 °F 25.0 °F 68% 29.93 in 10.0 mi West 16.1 mph - N/A   Overcast
7:15 PM 34.0 °F 25.5 °F 26.8 °F 75% 29.94 in 10.0 mi West 11.5 mph - N/A Snow Light Snow
7:35 PM 33.8 °F 23.2 °F 27.0 °F 76% 29.95 in 10.0 mi West 17.3 mph 24.2 mph N/A   Overcast
7:55 PM 33.8 °F 23.9 °F 27.1 °F 77% 29.96 in 10.0 mi West 15.0 mph 20.7 mph N/A   Overcast
8:15 PM 33.1 °F 23.4 °F 27.0 °F 78% 29.96 in 10.0 mi West 13.8 mph - N/A   Mostly Cloudy
8:35 PM 32.7 °F 23.4 °F 26.8 °F 79% 29.97 in 10.0 mi West 12.7 mph - N/A   Overcast
8:55 PM 32.9 °F 23.7 °F 27.0 °F 79% 29.97 in 10.0 mi West 12.7 mph 19.6 mph N/A   Overcast
9:15 PM 33.4 °F 23.5 °F 26.8 °F 77% 29.97 in 10.0 mi West 15.0 mph 20.7 mph N/A   Overcast
9:35 PM 34.0 °F 23.8 °F 26.6 °F 74% 29.97 in 10.0 mi West 16.1 mph 24.2 mph N/A   Overcast
9:55 PM 34.2 °F 23.3 °F 26.4 °F 73% 29.98 in 10.0 mi West 18.4 mph 26.5 mph N/A   Overcast
10:15 PM 34.0 °F 23.0 °F 26.4 °F 74% 29.98 in 10.0 mi West 18.4 mph 24.2 mph N/A   Overcast
10:35 PM 33.8 °F 22.2 °F 26.4 °F 74% 29.99 in 10.0 mi West 20.7 mph 26.5 mph N/A   Overcast
11:15 PM 33.3 °F 22.1 °F 27.5 °F 79% 30.00 in 10.0 mi West 18.4 mph - N/A Snow Light Snow
11:35 PM 32.9 °F 21.3 °F 28.0 °F 82% 30.00 in 10.0 mi West 19.6 mph - N/A   Overcast
11:55 PM 32.9 °F 22.8 °F 28.2 °F 83% 30.01 in 10.0 mi West 15.0 mph 23.0 mph N/A Snow Light Snow